Dallas Addison, TX

1:14 AM CDT on May 24, 2017 (GMT -0500)
Addison

Weather History for KADS - October, 2012

Change the Weather History Date:

Saturday, October 6, 2012

  Actual Average Record
Temperature  
Mean Temperature 52 °F -  
Max Temperature 57 °F 78 °F 93 °F (2002)
Min Temperature 46 °F 61 °F 46 °F (2012)
Degree Days  
Heating Degree Days 14    
Growing Degree Days 2 (Base 50)    
Moisture  
Dew Point 42 °F    
Average Humidity 69    
Maximum Humidity 81    
Minimum Humidity 62    
Precipitation  
Precipitation 0.00 in - - ()
Sea Level Pressure  
Sea Level Pressure 30.17 in    
Wind  
Wind Speed 11 mph (NNE)    
Max Wind Speed 16 mph    
Max Gust Speed 22 mph    
Visibility 11 miles    
Events Rain    
Averages and records for this station are not official NWS values.
T = Trace of Precipitation, MM = Missing Value Source: NWS Daily Summary

Daily Weather History Graph

Daily Weather History Graph

Search for Another Location

Airport or City:

Trip Planner

Search our weather history database for the weather conditions in past years. The results will help you decide how hot, cold, wet, or windy it might be!

Date:

Astronomy

Oct. 06, 2012 Rise Set
Actual Time 7:25 AM CDT 7:04 PM CDT
Civil Twilight 7:00 AM CDT 7:29 PM CDT
Nautical Twilight 6:32 AM CDT 7:57 PM CDT
Astronomical Twilight 6:03 AM CDT 8:26 PM CDT
Moon 11:35 PM CDT (10/6) 1:06 PM CDT (10/6)
Length of Visible Light 12h 28m
Length of Day
11h 39m
Waning Gibbous, 65% of the Moon is Illuminated
Oct 6
Waning Gibbous
Oct 8
Last Quarter
Oct 15
New
Oct 21
First Quarter
Oct 29
Full

Hourly Weather History & Observations

Time (CDT) Temp. Windchill Dew Point Humidity Pressure Visibility Wind Dir Wind Speed Gust Speed Precip Events Conditions
12:15 AM 57.2 °F - 44.6 °F 63% 30.12 in 10.0 mi North 12.7 mph 18.4 mph N/A   Overcast
12:35 AM 55.4 °F - 44.6 °F 67% 30.11 in 10.0 mi NNE 12.7 mph 21.9 mph N/A   Overcast
12:55 AM 55.4 °F - 44.6 °F 67% 30.13 in 10.0 mi NE 10.4 mph 19.6 mph N/A   Overcast
1:15 AM 55.4 °F - 44.6 °F 67% 30.12 in 10.0 mi NNE 11.5 mph - N/A   Overcast
1:35 AM 55.4 °F - 44.6 °F 67% 30.12 in 10.0 mi NNE 11.5 mph - N/A   Overcast
1:55 AM 55.4 °F - 44.6 °F 67% 30.13 in 10.0 mi NNE 9.2 mph 17.3 mph N/A   Overcast
2:15 AM 55.4 °F - 44.6 °F 67% 30.13 in 10.0 mi NNE 9.2 mph - N/A   Overcast
2:35 AM 55.4 °F - 44.6 °F 67% 30.13 in 10.0 mi NNE 10.4 mph 16.1 mph N/A   Overcast
2:55 AM 55.4 °F - 42.8 °F 63% 30.13 in 10.0 mi NNE 8.1 mph - N/A   Overcast
3:15 AM 53.6 °F - 44.6 °F 72% 30.13 in 10.0 mi NNE 10.4 mph - N/A Rain Light Rain
3:35 AM 53.6 °F - 44.6 °F 72% 30.13 in 10.0 mi North 11.5 mph - N/A   Light Drizzle
3:55 AM 53.6 °F - 42.8 °F 67% 30.12 in 10.0 mi NNE 10.4 mph - N/A   Light Drizzle
4:35 AM 53.6 °F - 42.8 °F 67% 30.12 in 10.0 mi North 10.4 mph - N/A   Overcast
4:55 AM 53.6 °F - 42.8 °F 67% 30.13 in 10.0 mi NNE 9.2 mph - N/A   Overcast
5:35 AM 51.8 °F - 41.0 °F 67% 30.14 in 10.0 mi North 12.7 mph - N/A   Overcast
5:47 AM 51.8 °F - 42.8 °F 71% 30.15 in 25.0 mi NNE 10.4 mph 21.9 mph N/A   Overcast
5:55 AM 53.6 °F - 41.0 °F 62% 30.14 in 10.0 mi NNE 11.5 mph - N/A   Overcast
6:47 AM 51.8 °F - 42.8 °F 71% 30.15 in 13.0 mi NNE 13.8 mph 20.7 mph N/A   Overcast
7:47 AM 51.8 °F - 42.8 °F 71% 30.16 in 13.0 mi NNE 11.5 mph 18.4 mph N/A   Overcast
9:51 AM 51.8 °F - 44.6 °F 76% 30.18 in 13.0 mi NNE 8.1 mph 15.0 mph N/A   Overcast
10:47 AM 51.8 °F - 44.6 °F 76% 30.18 in 13.0 mi North 13.8 mph - N/A   Overcast
11:47 AM 51.8 °F - 44.6 °F 76% 30.19 in 11.0 mi NNE 15.0 mph - N/A   Overcast
12:47 PM 53.6 °F - 44.6 °F 72% 30.18 in 13.0 mi NE 9.2 mph - N/A   Overcast
1:47 PM 53.6 °F - 42.8 °F 67% 30.16 in 15.0 mi NNE 10.4 mph 17.3 mph N/A   Overcast
2:47 PM 55.4 °F - 42.8 °F 63% 30.15 in 13.0 mi North 9.2 mph 15.0 mph N/A   Overcast
4:47 PM 53.6 °F - 41.0 °F 62% 30.15 in 13.0 mi North 12.7 mph 19.6 mph N/A   Overcast
5:50 PM 51.8 °F - 41.0 °F 67% 30.17 in 15.0 mi NNE 13.8 mph 19.6 mph N/A   Overcast
6:47 PM 50.0 °F - 41.0 °F 71% 30.19 in 13.0 mi NNE 11.5 mph - N/A   Overcast
7:54 PM 48.2 °F - 41.0 °F 76% 30.21 in 10.0 mi North 16.1 mph 20.7 mph N/A   Overcast
8:50 PM 46.4 °F 40.4 °F 41.0 °F 81% 30.24 in 10.0 mi NNE 13.8 mph 19.6 mph N/A   Overcast
9:50 PM 46.4 °F 41.1 °F 39.2 °F 76% 30.25 in 10.0 mi NNE 11.5 mph 17.3 mph N/A   Overcast
10:15 PM 46.4 °F 40.4 °F 35.6 °F 66% 30.24 in 10.0 mi NE 13.8 mph 19.6 mph N/A   Overcast
10:35 PM 46.4 °F 41.5 °F 35.6 °F 66% 30.26 in 10.0 mi NNE 10.4 mph 16.1 mph N/A   Overcast
10:55 PM 46.4 °F 42.4 °F 35.6 °F 66% 30.26 in 10.0 mi NE 8.1 mph 17.3 mph N/A   Overcast
11:15 PM 46.4 °F 40.1 °F 35.6 °F 66% 30.26 in 10.0 mi NNE 15.0 mph 19.6 mph N/A   Overcast
11:55 PM 46.4 °F 41.5 °F 37.4 °F 71% 30.27 in 10.0 mi NNE 10.4 mph - N/A   Overcast